Theta_e
311 302 299 299 302 303 306 307 307 307 307 306 306 305 304 304 306 306 306 299 302 301 301 302 302 302 304 305 306 308 307 306 306 306 307 306 305 306 306 307 310 312 313 319 323 326 329 330 330 331 332 332 332 332 332 332 332 333 332 332 330 332 332 331 331 331 331 329 329 330 330 329 331 330 331 331 332 333 334 335 334 334 333 334 333 332
308 300 300 303 305 306 307 308 308 307 307 306 304 304 302 305 302 307 305 301 301 302 303 306 304 303 304 306 308 308 306 303 303 304 305 307 307 306 307 307 308 310 315 323 323 325 327 328 330 331 331 329 330 330 331 331 331 332 332 331 331 331 332 331 331 331 331 331 331 330 330 331 331 331 330 329 331 332 334 335 335 334 334 334 333 332
299 297 302 306 308 309 308 308 308 307 305 305 303 303 302 302 305 305 302 302 301 301 302 305 302 303 305 306 307 307 308 308 306 304 305 306 307 307 307 307 308 309 312 316 317 319 323 327 329 329 330 330 330 330 330 331 331 331 331 331 331 330 330 331 330 330 331 332 333 332 332 332 332 334 333 332 331 332 332 334 335 335 335 334 334 333
295 300 305 308 308 306 306 307 307 306 305 303 303 301 299 304 302 299 304 301 301 301 301 301 299 301 304 305 305 307 308 309 310 307 306 306 305 306 307 307 308 308 310 311 312 314 318 323 326 327 328 329 330 329 329 329 330 330 330 331 331 330 331 331 331 329 332 333 334 334 334 334 333 332 333 334 332 332 331 331 333 335 335 335 334 334
298 303 308 308 307 306 304 305 305 303 301 304 304 302 301 302 303 302 298 299 299 301 300 298 297 298 302 302 304 307 309 309 310 308 307 307 308 308 309 310 309 307 309 311 311 312 313 318 322 325 326 328 328 328 328 329 329 329 330 331 331 330 331 332 331 330 331 332 332 333 334 334 333 333 332 332 331 331 330 330 331 332 334 335 334 334
301 306 309 306 306 305 305 302 304 303 299 300 304 303 303 304 302 302 302 300 300 300 296 296 293 295 302 305 306 308 307 306 307 306 306 306 306 307 305 306 308 310 310 310 310 311 312 315 321 323 325 326 327 327 328 330 330 330 330 331 331 331 331 331 332 332 331 330 330 330 329 328 328 328 329 328 328 329 329 329 331 333 334 334 334 334
302 307 307 305 304 304 304 302 304 304 299 298 299 305 304 304 303 303 301 301 295 293 297 298 292 290 300 300 303 304 304 304 306 305 304 305 306 306 306 306 307 308 309 310 310 310 311 313 317 321 323 325 326 327 329 330 330 330 330 331 331 331 331 333 333 333 330 330 330 330 329 329 328 327 328 331 332 331 331 332 331 332 333 334 334 334
303 304 305 305 303 302 301 299 303 304 301 297 305 305 305 303 302 302 301 301 298 303 302 299 298 291 292 299 304 305 304 304 305 307 307 306 305 305 305 306 306 307 308 310 310 309 310 311 313 316 320 324 325 327 329 329 329 329 330 330 331 331 331 333 333 333 332 329 329 329 329 329 329 328 328 330 331 332 331 331 331 332 332 333 333 333
303 302 303 302 302 301 300 302 305 306 302 300 303 306 304 304 303 302 301 299 299 294 292 298 301 291 291 299 304 304 302 303 304 306 307 308 309 307 307 306 307 307 308 309 311 311 310 310 311 313 316 321 325 327 327 328 329 330 330 330 331 331 331 332 333 333 332 330 330 330 329 329 329 330 330 330 331 331 331 330 331 331 332 332 332 332
303 305 305 305 302 299 304 306 306 305 301 299 304 306 305 304 301 300 299 296 296 292 288 295 298 289 291 299 301 305 301 301 304 307 307 307 309 309 309 310 308 308 309 310 309 310 311 312 312 313 313 314 319 323 327 328 329 329 330 329 330 330 331 332 333 333 333 332 329 330 330 329 329 329 329 330 329 330 330 329 330 330 330 330 330 331
299 301 305 306 303 305 306 307 307 306 306 302 302 300 299 299 297 297 296 295 292 288 291 296 298 295 288 297 300 301 301 302 304 305 306 308 308 309 309 309 311 309 309 309 309 308 308 309 309 310 310 311 313 318 321 324 326 328 329 329 329 330 331 332 332 332 332 332 331 329 329 329 329 329 329 328 327 328 329 328 328 329 329 329 329 330
299 301 303 303 303 307 306 300 303 307 301 301 299 297 297 294 296 293 292 293 287 286 291 296 297 297 286 294 301 303 301 302 302 302 303 305 306 307 307 307 306 305 305 306 306 306 307 307 308 308 307 308 309 310 315 319 322 324 326 328 328 329 329 330 331 331 332 332 332 331 330 329 329 329 329 327 326 327 327 328 327 328 328 328 328 329
294 298 301 298 301 304 302 301 299 301 300 299 299 298 292 288 288 285 288 284 285 285 288 292 295 292 291 296 301 302 304 303 304 305 304 304 304 305 306 306 306 306 306 306 306 307 308 307 307 307 307 307 308 309 310 313 317 319 321 323 324 325 328 329 330 330 330 331 330 331 330 329 329 329 329 328 327 328 327 327 327 327 326 327 327 327
292 297 296 298 300 302 305 297 293 292 295 296 295 293 290 285 283 281 285 287 288 291 290 291 293 288 294 297 302 302 304 306 304 303 303 303 302 303 303 305 306 308 307 307 307 308 308 308 309 308 307 307 308 308 309 310 312 315 317 318 320 321 325 327 328 329 329 330 330 330 330 329 329 328 329 328 328 328 328 328 327 327 327 326 326 327
285 286 293 296 293 302 302 303 299 295 294 296 300 298 292 290 286 282 285 282 284 288 287 293 288 287 289 295 298 300 302 303 302 303 304 304 304 303 303 304 304 304 306 308 308 308 307 308 307 307 307 307 307 308 309 309 309 311 313 315 317 318 321 324 326 327 327 328 329 329 329 329 329 328 327 328 329 328 328 328 328 328 328 326 327 327
290 290 296 301 301 301 300 305 304 298 296 298 300 302 295 292 297 288 288 288 288 288 285 285 288 295 296 302 303 304 303 302 302 302 304 303 303 304 303 304 305 305 305 306 307 307 307 307 307 307 307 307 308 308 308 307 308 309 309 311 314 316 318 320 323 325 327 327 328 329 328 328 328 327 328 327 328 328 329 328 327 327 328 327 328 328
292 288 295 297 300 300 301 305 302 303 288 294 296 290 295 300 298 291 286 288 287 288 286 291 289 293 299 300 302 303 302 302 303 305 302 302 303 303 304 304 304 304 306 306 306 306 306 306 307 308 308 308 308 308 308 308 308 308 308 309 309 311 314 316 319 321 325 326 326 327 328 328 328 327 326 326 327 328 328 329 328 327 327 328 328 328
291 287 294 296 294 301 301 304 303 304 303 297 290 294 300 301 299 292 286 286 286 283 286 292 288 291 292 289 302 303 302 303 304 305 302 303 302 301 304 305 304 305 305 306 306 306 306 306 306 306 308 308 308 308 309 309 309 309 309 308 308 309 310 313 316 318 321 324 324 325 326 326 326 326 327 327 327 327 327 328 328 328 327 327 328 328
297 284 289 293 297 296 299 302 299 301 302 298 295 304 294 287 286 292 289 283 283 282 284 289 290 289 292 293 297 297 298 299 301 302 301 300 300 301 302 303 304 305 307 307 307 308 308 307 307 307 308 308 308 308 307 308 309 309 309 309 309 309 310 312 314 316 319 321 323 324 324 325 325 326 326 327 327 327 327 327 328 328 327 328 328 327
299 288 287 293 294 295 297 298 288 293 297 299 302 297 302 297 292 288 288 289 289 284 284 285 289 286 295 295 299 298 299 301 300 301 301 300 301 301 302 303 303 305 306 306 307 307 308 308 307 306 307 307 307 308 309 309 309 308 308 308 308 309 310 311 313 316 316 319 321 322 323 323 324 324 325 326 326 326 326 327 328 327 326 326 325 325
293 297 284 288 296 295 289 294 292 293 289 291 294 292 295 294 296 296 295 290 288 286 286 286 285 290 298 301 300 301 302 303 301 301 301 302 302 303 303 304 305 304 305 306 307 306 307 308 308 308 308 308 307 307 306 306 307 309 309 308 308 308 309 310 312 314 316 318 319 319 320 321 322 323 324 325 326 327 327 328 327 326 325 324 323 323
289 291 285 286 287 289 292 298 299 298 295 294 293 292 294 291 288 286 285 295 291 288 285 285 283 290 299 301 302 302 303 302 302 302 303 302 302 303 304 305 305 306 305 305 306 306 307 307 309 309 309 309 307 307 306 308 308 308 308 309 309 308 308 309 310 312 314 315 317 318 319 320 321 323 324 324 325 325 326 326 325 324 323 322 321 320
297 293 287 284 287 290 294 293 294 296 299 297 297 294 297 296 294 290 285 287 289 289 287 286 284 288 300 301 301 302 301 300 300 300 300 301 302 303 304 305 307 307 305 305 305 306 307 307 308 308 307 307 306 306 307 308 308 308 309 309 309 308 308 309 309 311 313 314 315 316 317 318 319 321 322 322 322 322 323 323 323 322 319 319 318 317
295 288 285 286 290 292 293 296 297 296 296 296 297 298 297 294 295 293 291 290 288 288 286 287 284 289 299 301 301 301 299 299 299 300 301 301 301 302 303 305 305 307 307 307 306 306 307 308 308 306 308 309 309 308 308 308 308 308 308 308 308 308 308 309 309 309 311 312 313 314 315 316 317 317 318 318 319 319 320 320 319 318 317 317 316 315
291 290 288 282 282 285 288 291 292 296 294 292 293 295 297 298 297 295 291 292 288 289 289 287 282 289 291 298 299 298 297 296 297 299 300 301 303 303 303 304 306 306 306 306 306 307 307 308 308 308 308 308 308 308 308 308 308 308 308 308 307 307 308 307 308 308 309 310 311 312 313 314 314 315 315 315 316 316 316 317 316 315 315 315 314 313
293 291 288 281 278 276 276 278 281 285 288 291 295 295 295 296 296 291 287 289 285 289 290 287 287 294 295 297 297 297 297 297 298 299 299 301 302 301 304 305 305 306 307 306 305 307 306 307 307 307 308 309 307 307 307 308 307 307 307 307 307 306 306 306 306 305 306 307 308 308 310 311 312 312 313 313 314 314 314 313 313 312 311 312 312 309
291 292 291 289 286 284 286 288 295 295 291 287 290 293 293 296 297 295 291 288 286 289 288 290 292 294 292 295 295 297 297 297 297 298 297 299 300 302 303 306 308 307 305 304 304 306 306 307 307 307 311 308 306 305 307 306 306 306 306 306 306 305 305 305 305 304 304 304 305 306 307 308 309 310 310 310 311 310 309 310 308 308 309 306 308 307
289 289 291 292 292 291 293 292 295 294 290 291 290 291 293 293 294 291 288 287 293 289 286 293 295 292 294 294 296 297 297 298 298 298 299 301 302 303 304 305 302 303 303 303 304 305 306 307 308 310 311 307 306 306 305 305 305 305 306 305 305 305 304 304 304 303 303 303 303 304 305 306 306 306 307 307 306 306 304 305 304 304 303 300 304 302
290 288 291 292 292 291 294 294 294 294 293 292 292 291 290 292 292 288 290 293 295 289 288 294 296 293 295 296 297 298 298 298 299 300 301 302 302 302 302 302 302 302 303 304 306 307 308 308 309 313 307 307 305 304 305 305 305 304 304 304 304 305 304 304 303 302 302 302 303 304 305 306 304 304 304 300 300 299 299 299 298 297 297 297 298 300
292 289 291 291 289 290 291 293 294 293 291 291 291 291 292 292 292 292 293 294 294 293 295 297 296 296 298 299 299 300 301 301 301 302 300 300 301 302 302 303 303 304 304 305 306 307 307 308 308 307 308 307 306 305 305 305 306 305 305 304 304 303 304 304 303 302 302 301 302 303 304 304 301 301 299 298 297 295 295 295 295 295 294 295 296 296
294 289 292 290 288 287 289 292 294 294 291 288 290 292 292 292 293 293 294 294 295 294 295 295 295 294 300 302 301 302 302 303 301 300 300 302 303 303 303 303 304 304 305 306 306 307 307 307 306 305 305 306 307 306 304 304 305 306 305 304 304 303 303 303 302 302 302 302 302 302 299 298 297 295 295 295 294 294 294 294 293 292 293 293 293 293
294 290 291 289 286 285 287 289 292 290 289 288 288 290 291 291 290 292 291 294 293 291 293 294 292 293 299 301 302 302 301 300 300 301 301 302 303 302 302 303 303 304 305 306 306 306 307 306 305 304 304 305 305 305 304 304 305 305 304 305 304 304 303 302 302 302 302 302 301 299 297 295 295 293 293 293 293 293 293 292 291 292 292 292 291 291
291 290 287 288 285 285 286 289 289 288 287 285 286 290 292 293 294 295 296 297 296 296 292 289 291 298 300 300 300 300 299 300 300 301 301 302 303 303 302 303 304 305 305 306 305 306 306 304 304 304 304 304 304 304 304 304 303 303 304 304 304 303 301 300 300 302 302 301 298 296 294 293 293 292 292 292 292 291 291 291 291 291 291 291 291 290
291 290 289 290 285 284 284 286 288 285 279 280 292 296 295 293 293 292 292 294 296 297 295 297 298 300 301 299 298 298 299 299 301 303 304 303 303 303 303 304 305 305 305 306 306 305 304 305 304 304 304 304 303 302 303 302 301 302 303 303 303 300 300 299 299 300 299 297 296 295 294 293 292 292 292 292 291 291 291 290 291 291 291 290 290 290
290 290 290 290 287 281 284 285 283 277 280 292 296 298 298 297 297 295 295 296 297 297 298 298 298 299 299 300 300 300 301 301 302 302 302 303 304 304 304 304 304 303 304 304 304 304 304 304 304 304 303 303 302 301 301 301 302 301 300 300 299 299 299 299 299 299 297 295 295 294 294 293 292 292 292 291 291 290 290 290 290 290 290 290 290 290
289 289 289 286 285 285 283 283 277 278 289 295 297 296 300 298 297 296 293 296 297 297 298 296 298 300 300 300 300 301 301 302 302 302 303 304 305 306 304 303 303 303 302 303 303 304 305 305 303 302 301 300 299 300 300 300 301 299 298 299 298 297 297 297 297 296 295 295 294 293 293 292 292 292 291 290 290 290 290 290 289 288 289 290 290 290
293 289 288 282 285 280 281 283 283 291 290 293 292 293 295 292 293 292 287 292 297 298 298 297 298 299 300 300 301 301 302 301 300 301 304 302 303 303 302 302 303 304 304 304 304 305 308 302 300 300 298 297 298 297 298 299 298 297 297 297 297 295 295 294 294 294 295 294 293 292 292 292 292 291 291 290 289 289 289 289 289 289 289 288 288 289
294 288 288 285 281 285 281 280 282 282 280 287 294 297 299 299 299 299 294 290 299 299 300 298 297 298 299 300 300 300 301 295 294 296 301 302 303 304 302 304 303 304 304 304 307 303 301 300 297 297 296 295 296 297 297 296 296 296 297 296 295 294 293 293 293 294 294 293 295 293 293 292 292 291 290 289 289 289 289 289 290 289 288 289 289 289
290 292 289 288 283 284 283 280 280 279 284 292 296 299 300 300 300 299 292 287 296 299 299 299 298 299 299 299 299 300 296 291 292 297 302 302 303 303 303 303 302 303 303 302 302 301 298 297 295 294 294 295 296 297 295 294 294 295 295 295 295 293 293 293 294 294 294 294 295 294 293 292 290 290 289 289 289 289 289 288 289 289 289 290 289 289
287 287 287 284 280 284 284 282 281 285 285 292 293 297 298 300 301 295 283 285 296 300 300 299 298 299 299 299 299 298 294 291 293 298 303 305 303 303 302 302 299 298 297 295 294 294 294 293 295 296 296 295 294 294 293 294 294 292 294 295 294 293 293 293 293 295 296 296 295 294 293 293 289 289 289 288 288 288 289 289 289 288 288 289 290 289
285 285 287 284 284 284 285 284 286 288 293 292 292 296 299 301 297 286 282 291 297 300 300 301 299 300 300 299 299 295 298 299 301 299 295 297 296 295 294 294 296 296 296 295 294 290 294 294 294 294 293 293 291 291 293 293 293 294 294 294 293 293 293 294 295 295 295 295 294 292 291 290 289 288 288 288 288 288 288 289 288 287 288 288 289 288
285 286 285 287 285 283 285 284 285 289 295 296 294 298 300 295 285 286 295 298 300 299 299 302 300 301 301 300 300 300 301 302 299 296 296 296 297 296 294 294 294 293 292 290 289 291 293 293 292 292 291 289 289 290 291 291 291 293 293 293 292 293 294 294 294 294 294 294 292 291 289 289 288 288 288 288 288 287 288 288 287 287 287 289 287 286
285 284 283 283 286 286 286 283 283 280 291 297 295 294 297 290 292 297 294 296 298 298 297 298 301 302 301 300 301 302 301 300 298 297 296 295 295 295 294 294 294 294 293 291 289 289 290 293 292 290 288 288 289 289 289 288 288 288 289 291 290 292 292 293 293 293 293 290 290 288 287 287 287 287 287 287 288 287 287 287 287 287 287 286 286 286
291 285 285 286 290 283 283 281 283 290 294 296 295 289 294 297 299 301 299 296 298 297 297 298 298 301 301 301 300 299 300 299 297 297 295 294 294 294 294 293 293 292 292 291 291 289 288 291 290 289 288 288 288 288 288 288 287 287 287 288 290 290 290 291 290 290 290 289 287 287 287 287 287 287 287 287 287 287 287 286 286 286 288 287 287 287
291 289 290 286 291 288 286 290 292 292 295 297 297 298 299 300 300 298 302 301 296 295 295 297 298 298 299 300 299 299 297 298 297 296 294 293 293 293 292 292 292 291 291 291 288 286 287 290 288 287 286 287 286 286 286 286 286 286 286 287 287 287 287 287 286 287 286 286 286 287 287 287 287 287 287 287 287 287 287 286 286 286 286 286 286 287
294 295 293 294 291 295 295 290 291 292 295 296 299 301 300 299 299 297 300 299 299 299 297 298 298 298 297 298 297 296 296 295 296 294 294 294 293 293 292 291 290 289 289 288 287 285 285 286 285 285 285 285 284 284 284 283 284 283 283 285 285 285 285 285 285 285 285 285 285 285 285 285 285 286 286 286 287 287 288 287 286 286 286 286 286 286
290 295 291 290 291 291 287 295 290 293 295 297 297 295 298 299 298 297 295 300 301 300 296 297 300 298 297 297 297 296 296 294 293 294 293 293 293 292 292 290 289 289 288 286 284 285 286 286 284 284 284 283 283 282 282 281 281 281 282 282 283 284 285 285 285 284 284 284 284 284 284 285 286 286 285 286 287 287 287 286 286 286 286 286 286 286
288 293 291 291 290 290 291 295 293 294 295 297 297 294 295 296 295 295 297 295 294 294 295 294 295 295 296 295 297 296 295 294 293 293 293 293 292 291 291 289 287 284 284 284 283 284 284 284 283 283 283 282 281 281 280 279 279 279 280 280 281 282 284 283 283 284 283 282 284 285 285 285 282 284 286 286 286 286 286 286 286 286 286 286 286 286
291 292 288 290 289 292 294 292 294 292 293 294 295 296 297 299 297 293 291 291 291 291 291 292 294 295 295 296 296 295 293 293 293 293 293 292 291 290 289 287 286 285 284 283 282 283 284 283 282 281 281 280 280 279 278 277 277 277 278 279 280 282 283 282 281 281 281 282 284 283 283 284 284 285 285 284 284 286 286 285 286 286 287 287 287 286
291 288 292 291 288 288 289 292 292 289 288 291 293 295 294 296 295 291 290 290 291 291 291 291 291 292 293 292 293 294 292 293 293 293 292 291 289 287 286 285 284 283 282 282 281 281 280 281 280 280 279 278 278 277 276 276 276 276 276 277 278 280 281 282 283 282 281 282 283 282 283 283 283 282 283 284 284 284 283 281 282 283 283 284 283 283
291 291 292 289 289 289 294 297 296 297 296 294 295 294 294 291 292 291 291 291 291 292 292 292 290 290 290 290 289 293 293 292 292 291 288 287 286 287 286 285 284 283 283 282 280 279 279 279 279 278 278 278 277 276 275 275 274 275 275 275 277 279 279 281 283 283 282 282 281 279 281 282 282 282 282 282 282 282 283 283 282 282 282 282 282 282
Wind_Speed
10 13 15 17 15 16 17 19 16 13 7 10 11 10 11 10 11 2 3 5 3 4 9 10 14 16 17 15 12 11 9 12 13 13 11 9 9 9 9 9 9 10 10 5 7 9 11 11 11 11 11 12 13 14 14 15 15 15 14 13 15 12 14 13 12 12 12 12 11 11 12 11 11 10 10 10 9 8 9 9 8 8 8 8 9 9
13 15 18 16 17 17 17 15 15 13 11 10 10 11 10 12 10 9 4 6 3 5 8 9 11 15 16 15 14 12 12 15 14 12 12 12 12 10 11 12 11 10 6 5 5 7 8 9 10 10 10 12 14 14 15 16 16 16 16 15 14 13 14 16 16 14 13 13 12 11 10 11 10 9 7 10 10 9 8 10 11 11 10 10 9 8
14 19 18 17 15 14 15 14 15 14 10 9 9 9 10 10 11 4 7 5 4 2 9 11 14 16 17 14 13 13 15 15 14 13 12 12 12 12 11 11 11 9 9 9 10 10 10 11 11 11 11 12 14 14 15 16 16 16 15 15 14 14 15 16 16 14 15 13 13 12 10 10 9 10 9 10 10 9 10 10 10 10 11 11 11 10
14 15 17 17 16 16 15 15 15 14 10 9 9 9 10 7 9 10 5 3 4 4 5 8 13 13 17 17 19 19 18 17 16 16 16 13 14 14 13 11 10 11 11 11 11 12 12 12 12 12 12 12 12 13 14 15 16 14 14 15 15 15 15 14 16 13 15 14 14 14 11 11 12 10 10 10 10 11 12 13 12 11 11 12 11 12
13 5 15 15 16 16 15 16 16 13 10 11 11 10 9 8 7 7 2 2 3 8 5 9 12 13 14 15 13 13 18 19 17 15 16 14 13 13 10 10 11 12 10 10 11 11 11 13 14 15 14 12 13 14 14 14 14 12 16 17 17 16 15 14 14 14 14 12 13 13 12 11 11 11 11 10 10 11 11 11 12 13 12 12 12 12
15 9 11 15 17 16 15 14 16 12 10 9 12 11 10 8 7 7 6 6 6 7 6 2 8 9 8 11 11 6 1 6 9 12 14 15 14 9 12 12 11 10 11 11 11 12 12 13 13 13 14 14 13 14 14 14 15 15 15 17 17 14 14 14 16 16 14 13 14 13 13 14 13 14 13 16 15 12 12 13 10 11 12 13 11 11
12 11 16 17 18 16 16 13 13 14 9 9 9 9 9 11 7 8 6 3 8 10 3 1 7 8 4 11 8 6 7 8 7 10 12 12 12 10 10 11 12 13 12 12 12 10 10 11 12 13 14 15 15 15 14 13 15 17 16 16 16 15 14 14 15 17 14 14 13 17 16 14 14 15 14 13 11 11 11 11 13 12 13 14 13 12
8 17 17 17 16 15 13 14 12 15 9 9 5 8 12 10 8 8 5 6 9 9 6 8 6 11 12 11 13 13 15 17 16 16 14 12 12 13 14 14 13 12 12 9 11 12 12 12 12 14 15 14 15 13 11 12 13 15 16 15 15 14 13 13 13 16 16 15 15 16 16 13 14 15 13 13 13 12 10 11 14 13 12 13 12 10
17 16 18 17 15 13 15 12 11 15 11 1 5 8 11 9 8 5 5 7 5 6 8 6 4 6 9 5 11 12 14 14 16 14 12 12 12 14 14 13 13 13 12 10 8 10 10 11 11 11 10 11 12 11 12 13 12 12 13 14 13 15 14 13 15 14 17 15 14 14 13 14 12 13 12 9 9 10 11 13 13 12 11 10 10 10
7 15 19 15 13 14 12 12 13 14 11 3 2 6 5 4 2 1 3 2 5 4 11 6 7 7 14 7 9 8 8 12 11 8 6 9 11 9 10 10 11 10 8 9 10 8 8 7 8 9 9 9 9 9 9 10 10 11 11 13 15 16 13 13 15 15 17 17 14 14 14 15 13 11 11 12 12 10 11 14 13 12 9 7 9 11
4 5 3 13 14 11 12 11 11 15 5 7 9 10 8 5 3 2 1 3 3 11 13 9 10 7 11 3 6 7 5 1 1 2 3 3 2 4 5 6 4 4 4 2 3 5 6 7 7 6 8 8 7 5 8 9 11 11 12 13 16 17 13 13 15 16 17 16 16 15 15 16 15 14 13 12 13 13 12 14 14 14 9 10 10 10
7 7 7 2 3 4 10 11 8 7 13 12 6 8 7 4 2 2 0 1 5 10 3 2 9 13 10 2 4 4 4 1 1 2 3 4 5 5 3 0 0 1 2 3 4 5 6 5 6 7 8 9 9 9 9 10 10 11 12 13 15 16 16 15 14 15 16 15 16 15 16 16 15 14 12 14 15 14 15 14 14 13 10 10 10 10
6 10 4 5 5 10 13 12 6 9 10 8 8 9 8 4 2 4 3 6 10 10 3 4 4 5 19 13 9 4 8 4 7 7 6 8 8 8 7 1 1 2 4 5 5 5 4 5 5 6 7 7 8 9 10 10 10 11 12 14 15 16 16 16 15 16 17 16 17 16 16 16 13 14 14 13 13 12 13 12 12 11 11 10 11 12
5 4 1 4 4 7 16 14 9 7 9 8 12 9 8 8 5 8 8 5 5 3 4 4 2 9 11 10 13 18 19 16 2 2 1 5 7 8 8 7 6 4 5 5 5 5 5 5 5 6 7 7 7 9 9 10 9 9 10 13 15 16 15 15 15 16 16 17 17 16 15 14 12 14 14 17 12 11 11 11 12 11 11 12 14 11
7 4 10 13 9 11 14 14 12 9 13 10 8 11 7 6 4 8 6 10 5 1 4 4 2 5 3 0 6 4 2 1 3 4 4 5 6 7 6 6 6 6 4 4 4 4 4 4 5 5 5 6 6 6 6 6 7 7 9 10 13 13 13 14 15 14 16 15 16 15 14 13 12 13 13 15 11 10 11 11 11 10 10 13 13 12
14 4 1 15 3 18 14 13 12 15 8 9 9 6 11 12 7 5 2 3 2 2 3 5 7 3 6 7 6 5 6 7 6 8 8 5 4 4 3 4 3 1 2 1 3 3 3 3 3 4 4 5 5 5 5 6 5 6 7 8 10 11 11 11 12 13 14 14 13 14 15 15 13 10 9 11 9 10 11 11 11 10 12 12 12 11
10 9 3 9 3 15 12 12 12 17 8 10 7 7 7 6 2 3 1 3 1 2 10 5 6 9 10 15 18 15 11 10 11 7 4 4 4 2 2 1 1 2 2 1 2 2 2 2 3 3 4 4 4 4 5 5 5 6 7 7 8 9 9 10 11 12 12 12 13 14 14 13 13 13 13 14 11 12 11 11 10 10 11 12 11 10
14 7 4 11 13 13 2 7 10 11 4 10 9 9 6 6 6 3 7 2 3 8 6 4 10 7 4 7 1 11 15 14 12 12 4 6 3 3 3 3 2 2 2 2 1 1 1 2 3 3 3 4 4 4 4 5 5 5 6 6 7 8 9 9 10 11 11 12 12 12 13 13 14 11 11 12 11 10 10 11 10 10 10 12 11 9
12 7 2 4 10 4 1 9 10 3 4 10 9 9 11 6 9 7 1 10 9 8 6 8 11 11 11 11 4 7 8 9 9 7 9 9 6 6 6 5 3 2 1 3 3 2 2 1 2 2 3 3 3 3 4 4 4 5 6 7 8 9 9 9 7 8 8 9 8 8 11 12 12 12 11 11 11 11 11 12 9 9 10 7 9 8
6 5 7 2 5 5 4 9 12 10 3 4 4 11 9 3 6 8 8 2 2 9 5 6 7 7 10 13 11 8 11 9 6 9 10 11 8 8 6 5 3 1 2 2 3 3 2 2 2 2 3 3 3 2 2 3 4 6 6 6 7 6 7 7 8 8 10 9 9 9 10 12 11 10 11 11 11 11 11 11 6 9 9 9 7 7
5 4 6 7 5 11 10 10 15 15 12 8 11 11 10 3 2 2 3 7 6 5 8 8 9 7 5 9 12 15 13 8 5 7 8 9 9 7 6 4 3 1 0 0 1 2 3 3 3 3 3 2 2 3 3 3 5 4 4 5 6 6 7 7 7 8 8 8 8 9 10 10 9 10 9 11 11 10 10 9 8 8 8 7 9 8
3 7 10 11 9 15 11 8 7 14 13 12 14 14 16 12 7 11 10 8 6 7 6 6 11 8 2 5 7 7 9 7 5 5 5 6 8 7 6 5 4 3 2 1 1 2 3 3 3 3 2 2 2 3 3 3 3 4 4 4 4 5 6 6 7 7 8 8 8 8 8 9 8 9 9 10 10 10 10 10 10 9 9 10 9 9
4 4 11 11 12 13 5 6 4 6 9 13 11 12 14 13 10 8 10 8 3 5 3 2 5 10 6 9 8 8 8 7 6 6 6 7 8 7 7 6 5 4 3 2 3 3 3 4 3 4 4 4 4 4 3 3 3 3 3 4 4 4 5 5 6 6 6 7 8 9 7 6 7 7 9 9 10 11 11 10 9 8 9 9 8 8
7 4 9 7 7 6 7 2 3 3 2 12 14 12 15 19 19 13 5 3 8 5 6 7 6 13 3 3 3 6 6 5 3 5 5 5 5 6 6 6 5 4 4 3 3 3 4 4 3 4 4 2 2 3 3 3 4 4 4 4 4 5 5 5 5 5 6 7 8 8 7 7 6 7 8 9 9 10 9 8 7 6 8 8 6 8
8 6 12 9 5 3 4 4 7 6 5 10 16 11 13 15 15 7 3 1 4 11 7 7 9 11 2 1 2 5 6 5 4 5 4 3 5 5 4 4 4 3 2 3 4 3 4 4 4 3 3 3 2 3 3 4 4 5 5 5 5 4 4 4 4 4 5 6 7 8 8 8 7 8 9 9 7 9 8 8 7 6 7 6 7 6
5 9 11 13 14 14 13 15 18 20 22 11 9 12 10 19 23 10 8 7 6 6 11 9 16 4 5 4 6 4 4 3 4 4 4 4 3 5 4 4 4 3 4 4 4 4 5 5 4 4 4 2 2 3 3 4 5 5 5 5 4 5 5 5 5 5 5 5 6 7 8 8 7 8 8 8 8 8 7 7 7 6 5 6 7 6
5 8 8 9 14 15 14 3 2 8 10 11 21 21 18 14 17 9 3 5 13 10 11 18 18 4 4 10 8 9 5 7 8 6 6 5 5 5 4 4 4 4 4 5 5 5 5 6 5 4 2 1 2 3 4 4 4 5 4 5 5 6 7 6 5 6 6 6 7 7 7 6 6 6 6 6 7 5 6 6 6 7 7 6 7 8
2 9 16 13 7 5 2 2 7 16 17 16 14 14 14 12 9 12 13 19 13 7 12 18 17 12 12 10 11 11 9 8 7 8 8 7 8 6 5 4 5 6 6 5 6 6 5 5 5 3 1 1 2 3 4 5 5 4 4 5 5 6 6 6 6 6 6 7 8 8 8 6 5 5 5 4 4 4 5 5 5 6 6 6 7 7
9 12 15 13 9 4 3 12 13 13 14 14 18 13 16 18 16 17 22 23 10 14 16 3 12 18 19 12 12 12 11 10 10 11 7 5 3 3 5 6 6 7 6 6 7 5 3 3 3 2 1 2 3 5 5 4 4 4 4 5 5 5 7 7 6 7 7 8 9 9 7 6 4 5 4 4 3 3 3 4 4 4 5 6 6 7
5 8 9 10 6 2 3 10 15 16 14 19 20 22 24 23 24 27 28 24 22 19 17 3 13 19 13 14 12 12 11 12 10 4 2 2 5 7 7 7 7 6 6 6 6 5 4 3 2 2 2 3 5 4 4 4 4 4 4 5 5 5 6 6 7 6 7 8 8 6 5 4 3 3 3 3 3 3 2 1 1 2 3 4 5 5
11 10 15 13 10 8 3 3 9 13 17 18 19 22 24 24 27 30 27 19 20 23 18 15 8 11 6 8 12 11 12 4 2 6 6 6 8 8 6 6 7 7 7 7 6 5 4 2 1 2 4 5 4 4 4 5 5 4 4 5 5 5 5 7 7 7 7 8 7 4 3 3 3 2 3 3 2 2 3 4 4 3 2 2 2 3
12 5 9 10 10 5 4 7 7 5 11 15 18 18 22 26 26 28 23 19 16 22 18 9 13 18 7 12 12 12 4 3 9 10 9 9 9 5 6 9 9 9 8 6 5 5 3 2 3 4 6 5 4 4 4 5 4 4 5 4 5 4 4 6 8 8 8 7 4 3 4 3 3 2 3 3 3 3 3 3 3 4 5 5 4 3
14 9 10 12 11 11 6 7 7 7 5 5 13 22 31 33 24 12 13 14 23 19 7 14 23 10 9 13 13 7 6 10 11 9 9 9 6 8 11 12 11 8 6 5 6 4 2 3 4 5 6 5 4 4 4 4 5 5 5 4 3 2 3 6 7 7 7 4 3 3 2 2 3 3 3 3 3 3 3 4 4 4 5 6 4 4
11 10 6 10 9 4 8 6 6 7 12 14 19 29 24 22 24 18 17 21 20 13 16 19 17 3 8 9 15 16 15 13 11 13 12 10 9 12 12 11 9 7 5 5 3 3 4 3 4 4 5 4 4 4 3 3 5 5 3 2 1 3 4 5 7 6 4 1 1 1 1 1 2 3 3 2 2 3 3 4 5 4 3 3 4 5
17 14 6 8 4 5 8 9 7 14 15 15 10 10 15 19 17 20 22 20 20 23 26 22 22 13 7 12 13 13 10 12 13 16 15 11 12 11 12 6 4 4 6 5 4 4 4 4 3 4 4 3 3 3 4 4 4 3 2 2 2 2 3 4 5 5 2 1 1 1 1 2 2 3 1 1 2 2 3 3 2 3 3 4 5 6
13 14 8 3 5 5 5 8 10 16 12 9 2 2 9 16 19 18 22 23 26 26 25 25 25 17 14 12 8 9 11 13 14 17 16 14 8 8 5 4 5 8 9 7 6 5 3 3 3 3 3 2 3 3 3 5 2 1 2 1 1 1 2 3 3 1 1 1 1 1 1 2 2 1 0 1 1 2 2 1 2 3 2 2 2 1
13 7 6 5 1 10 9 13 14 3 4 5 10 7 12 14 17 20 20 21 20 19 23 25 25 20 17 15 10 8 7 4 8 14 11 9 12 10 8 7 8 7 7 6 4 5 1 1 1 2 2 3 3 4 4 3 2 2 1 1 1 1 2 2 2 1 1 1 1 2 2 2 2 2 2 1 1 1 1 2 2 2 2 3 2 2
8 13 5 10 2 1 10 6 4 8 12 15 21 18 17 13 9 10 9 17 13 25 23 21 20 17 16 14 12 11 6 6 11 18 11 13 13 10 9 7 8 8 7 6 3 0 0 0 1 1 2 3 4 3 3 3 3 1 0 1 2 1 1 2 2 2 2 1 2 2 3 3 3 3 3 3 3 3 2 1 1 2 2 3 4 4
5 4 1 8 4 4 7 9 9 12 15 17 4 11 14 11 10 11 4 16 20 19 22 22 18 15 15 15 19 14 10 12 20 11 11 13 11 10 10 10 9 5 2 1 0 1 1 2 1 2 2 2 2 3 4 4 2 1 1 1 2 1 2 3 3 2 3 2 1 2 3 4 3 3 3 3 4 3 4 3 3 2 2 1 2 3
3 3 4 3 3 7 7 6 9 6 14 6 9 8 16 16 16 11 4 21 15 18 19 19 18 17 18 23 22 17 17 20 17 9 5 6 7 5 7 5 3 2 1 2 2 2 1 1 0 0 1 2 3 4 4 3 2 1 2 2 1 1 2 3 3 3 2 0 1 1 3 3 3 3 3 3 3 3 3 3 3 3 3 2 2 2
9 6 9 12 11 10 10 5 3 6 11 4 7 13 12 19 21 15 22 17 13 19 17 20 22 24 24 23 17 14 19 20 7 5 9 7 7 4 4 6 4 3 3 2 2 2 1 1 1 1 2 3 4 4 3 2 2 2 2 1 1 1 1 1 2 3 3 1 1 1 1 1 2 3 2 3 3 2 2 1 2 3 3 3 2 3
7 5 1 2 7 10 10 10 9 9 6 9 8 14 16 12 13 24 8 4 8 5 7 12 20 21 19 19 16 18 17 17 3 7 8 7 6 4 5 5 4 3 4 4 3 1 0 1 1 3 4 4 4 3 3 2 2 2 2 2 3 3 3 1 1 0 1 1 0 0 1 1 1 1 1 1 2 3 2 2 3 3 3 2 2 3
18 14 15 14 11 6 4 7 7 11 14 23 13 7 16 17 3 4 4 3 3 9 7 5 8 12 11 13 17 17 15 8 7 5 7 8 7 6 6 4 4 3 4 3 2 1 1 1 2 4 3 3 4 3 3 2 2 2 1 4 4 4 3 3 2 1 1 0 1 1 1 1 2 2 2 2 2 2 2 2 3 3 3 3 3 3
12 9 5 5 9 11 13 11 13 21 2 22 19 14 10 2 5 2 5 3 1 3 7 7 8 9 11 13 14 14 13 9 7 8 10 9 6 4 3 2 2 1 2 3 3 2 0 1 3 3 4 4 4 4 3 2 3 2 3 4 5 3 3 3 3 2 2 2 2 2 2 2 2 2 1 2 3 3 4 3 3 2 2 2 3 3
10 16 19 21 18 12 17 17 6 3 17 18 19 14 13 15 7 5 3 3 6 3 4 4 9 8 9 12 10 9 6 8 8 10 11 9 7 6 6 5 3 2 2 3 3 1 1 2 4 4 4 5 5 4 4 3 3 4 5 5 4 3 3 3 3 3 4 4 3 2 2 2 2 2 2 2 1 2 2 3 3 3 2 3 2 3
19 19 10 2 8 15 4 2 1 1 5 15 7 2 16 19 5 1 1 2 3 5 9 9 9 9 8 6 7 6 8 7 9 8 8 9 8 6 6 5 3 2 3 4 4 2 2 3 5 5 4 5 5 5 5 6 5 6 4 5 4 3 3 3 3 4 4 3 3 3 2 3 2 3 3 2 1 1 1 2 2 1 2 2 2 2
5 16 7 6 3 10 12 19 10 8 6 6 5 2 5 17 8 4 3 2 0 1 6 2 1 6 9 7 9 10 8 10 10 8 9 9 8 8 8 7 6 5 5 4 2 1 2 3 5 6 6 6 5 5 5 6 6 5 4 4 4 3 3 4 4 4 4 3 3 2 2 1 1 1 2 1 0 0 1 1 1 1 1 2 2 2
10 10 12 12 9 18 18 7 9 5 10 12 5 5 4 7 6 6 2 3 2 2 2 2 2 4 3 5 6 8 7 8 10 11 10 9 8 7 7 8 8 6 5 4 3 3 5 6 6 6 6 5 5 5 5 6 6 6 5 4 4 3 3 5 5 4 4 3 3 3 2 2 4 2 1 1 0 0 0 1 1 1 2 2 2 2
3 14 13 13 13 13 5 4 11 11 10 13 7 3 8 12 12 6 4 4 4 5 4 2 2 5 6 5 5 7 9 7 9 11 12 8 7 7 7 7 7 8 7 6 4 4 5 6 6 7 7 6 5 5 5 6 5 5 5 4 4 4 4 4 5 5 4 3 3 3 2 2 2 2 2 1 1 0 2 2 0 0 1 0 1 2
12 15 14 11 10 12 17 21 19 14 14 17 15 13 8 7 6 8 5 5 6 8 7 8 6 6 6 5 2 5 11 8 7 9 10 6 7 8 8 8 8 8 7 6 6 7 8 7 7 7 7 5 4 4 4 5 5 5 5 4 4 3 4 3 3 4 3 3 3 3 2 2 2 2 1 1 1 0 1 5 5 3 1 2 7 7
15 18 15 16 18 23 27 13 15 12 1 8 13 9 8 6 8 10 9 8 6 7 9 12 11 7 6 3 4 2 10 10 8 7 8 6 6 6 7 9 8 8 7 6 8 7 8 7 6 7 7 5 3 4 4 5 5 5 6 6 5 4 3 2 3 3 3 3 3 2 2 2 2 2 2 2 2 1 1 0 3 6 6 4 3 4
Wind_Direction
169 197 197 208 204 204 206 208 211 220 213 215 224 231 231 236 239 158 171 127 136 259 245 252 258 263 263 262 262 260 246 246 251 251 247 238 233 236 240 235 227 228 238 242 233 223 215 212 208 204 201 199 199 203 202 202 205 208 207 204 210 197 204 211 208 209 208 208 211 217 216 216 217 218 222 226 224 225 218 210 204 204 201 208 195 197
190 212 213 211 208 203 208 209 213 224 218 215 226 226 230 235 248 235 190 130 140 233 265 257 267 269 270 270 266 260 252 248 246 248 247 245 240 236 234 237 232 230 219 179 202 218 216 213 209 207 207 203 201 203 202 203 204 207 209 209 208 207 203 212 212 209 208 207 206 205 211 215 216 213 202 221 225 226 232 229 222 221 220 216 211 196
199 215 212 207 207 202 206 207 215 218 212 228 230 219 235 234 246 205 123 144 152 217 265 264 266 270 272 272 269 262 255 251 242 239 244 248 247 244 239 235 234 225 217 203 216 211 209 206 205 207 212 213 213 205 205 206 205 206 208 211 209 209 213 212 212 211 212 208 208 208 210 207 214 216 207 213 222 221 226 228 227 219 215 215 218 207
202 219 213 202 202 202 201 207 210 212 208 214 215 225 225 229 224 229 176 173 194 240 296 303 293 280 276 265 259 253 250 252 244 235 233 226 237 242 242 236 225 227 223 217 214 211 206 201 200 204 211 214 211 213 212 210 210 208 210 210 210 212 213 213 211 210 215 212 211 213 214 212 216 217 216 203 207 215 219 224 224 224 214 212 217 215
200 192 199 196 200 202 199 197 203 203 206 213 224 229 236 219 226 264 108 265 205 242 263 283 280 269 260 262 255 246 235 235 236 233 233 229 226 230 239 242 236 237 228 222 219 217 210 199 200 201 206 207 212 213 211 209 206 209 209 209 210 211 212 212 208 198 210 212 213 212 215 223 223 227 226 217 213 209 214 217 218 220 221 221 220 217
212 205 193 191 195 201 203 201 205 202 219 209 221 238 235 231 242 221 270 311 268 264 156 311 307 278 259 256 262 279 259 225 236 237 231 230 230 211 223 228 229 226 230 229 223 218 211 205 201 199 200 201 210 214 213 207 205 207 210 209 209 210 210 212 211 203 200 207 208 205 209 211 216 221 218 220 217 206 209 217 218 220 216 219 219 213
204 175 196 191 198 199 208 212 199 209 214 210 209 208 243 253 252 264 272 286 265 258 114 312 263 283 323 296 275 268 257 250 242 228 230 230 231 224 223 228 225 221 219 217 225 224 220 211 205 200 198 201 205 213 210 208 210 211 212 211 208 207 210 210 209 204 201 207 210 212 210 210 212 219 224 220 216 216 212 216 219 218 217 216 214 214
178 179 188 195 196 199 202 208 200 204 203 220 90 180 216 225 236 249 265 268 267 306 287 237 254 284 280 266 275 268 267 265 259 253 244 231 222 218 218 217 220 227 225 212 209 215 217 216 209 206 203 199 205 205 200 207 213 215 214 212 209 209 210 210 206 204 203 205 208 212 214 214 215 218 222 215 219 217 214 212 220 219 216 213 209 203
172 175 182 182 193 197 206 202 180 196 211 111 124 180 200 211 233 247 267 264 281 1 280 263 245 276 258 259 246 239 250 250 252 249 243 242 229 231 228 224 217 216 218 214 210 217 218 222 224 223 216 208 205 200 199 203 207 212 219 218 215 214 213 213 207 205 203 203 204 208 213 217 219 221 221 219 210 206 205 215 218 215 210 202 200 205
194 180 181 186 188 201 198 195 197 191 198 38 164 133 138 130 98 277 254 312 291 281 263 238 206 256 276 265 267 239 232 257 262 258 238 231 236 237 247 242 232 223 218 218 228 227 222 222 223 224 230 221 211 207 200 202 202 207 209 214 217 219 216 214 213 207 209 204 204 210 212 216 217 214 221 223 218 199 205 218 215 211 198 188 201 205
93 354 290 187 201 197 193 197 187 189 158 133 130 109 103 104 118 81 45 334 294 258 263 224 219 229 291 287 214 236 241 240 171 189 213 226 252 268 272 269 245 234 219 195 221 236 244 241 237 226 224 229 226 196 200 201 205 205 207 209 214 218 218 217 216 214 213 211 207 212 214 215 216 213 210 213 220 216 207 218 217 213 195 198 204 203
135 149 183 154 3 175 121 72 47 153 132 152 147 131 122 96 113 152 1 172 250 257 70 143 210 199 238 194 201 153 81 249 52 308 276 280 276 278 292 334 25 284 270 255 235 234 231 231 226 223 232 232 228 214 204 205 202 207 207 207 213 215 215 216 217 216 216 214 215 215 215 217 217 215 211 209 214 212 215 213 216 214 201 204 206 204
160 176 120 96 295 154 147 141 119 138 166 164 159 162 188 199 138 235 207 230 224 250 94 62 111 223 239 244 267 281 278 174 235 264 272 293 301 297 285 254 194 220 258 253 244 240 231 223 219 216 221 223 222 216 212 207 204 209 212 210 212 216 214 216 214 215 217 217 220 219 218 220 220 221 221 218 215 212 213 211 211 204 200 199 205 204
154 49 24 136 166 234 181 172 149 159 182 169 185 173 190 199 182 236 222 242 276 188 128 133 97 264 281 291 244 244 256 264 288 89 254 264 278 286 279 280 282 269 261 263 253 245 242 232 220 223 224 221 215 213 214 217 212 208 214 216 217 220 215 216 217 218 219 221 222 222 222 222 220 223 228 232 224 214 216 213 211 201 197 206 210 200
142 199 223 171 204 191 210 204 172 145 156 179 173 185 200 197 191 212 207 215 222 293 124 152 137 243 216 79 10 359 320 332 165 215 217 230 256 266 270 276 273 268 253 224 232 234 234 227 223 227 229 235 235 232 225 225 226 223 223 222 225 227 222 218 218 218 220 222 223 224 226 224 221 224 229 232 227 224 220 216 212 205 206 216 214 208
183 136 200 177 49 166 188 202 153 136 148 179 183 195 217 222 222 247 16 302 246 223 189 191 226 272 233 1 278 269 262 239 234 252 250 244 233 227 269 264 278 304 320 296 276 273 255 237 232 231 243 251 254 246 233 229 231 229 234 239 242 240 236 230 226 225 224 225 225 224 222 221 220 222 228 237 226 228 228 223 212 207 210 217 216 211
180 199 106 95 182 169 180 196 175 149 176 169 163 203 196 23 263 249 123 164 43 297 261 192 252 257 276 271 253 247 233 237 236 251 189 244 210 204 246 14 63 32 357 352 306 301 296 278 249 240 242 245 244 235 227 228 228 231 234 236 240 243 243 240 236 235 232 232 230 228 225 225 227 222 229 236 233 230 230 228 218 213 213 215 213 210
167 132 105 143 155 177 70 177 174 188 114 134 198 198 101 51 356 248 232 158 225 249 262 177 236 259 232 284 31 212 229 236 241 248 192 176 182 180 117 121 83 39 8 339 341 321 291 284 274 271 252 244 243 244 241 237 229 233 234 234 242 244 243 242 242 240 236 233 232 232 229 227 232 227 227 232 237 236 232 226 224 216 211 214 210 207
130 101 184 311 157 91 170 164 174 171 261 193 188 135 156 197 213 207 215 239 226 237 273 249 243 245 231 240 153 158 177 180 200 178 171 169 177 141 141 122 110 63 16 23 25 21 8 324 310 274 267 266 245 240 247 244 240 234 233 230 228 229 230 237 239 242 243 240 237 235 235 232 226 226 227 228 229 233 235 230 218 199 208 209 208 207
151 117 138 23 160 156 143 180 189 180 200 310 131 178 213 321 213 179 201 311 268 255 250 273 205 254 209 226 225 199 182 177 167 177 178 175 165 152 143 136 113 71 38 15 14 0 334 321 300 278 269 260 258 251 242 249 244 244 239 236 238 242 243 238 233 231 234 237 238 235 234 235 233 229 230 229 226 225 230 231 205 204 207 211 205 205
153 119 148 154 162 146 188 198 200 177 164 172 181 186 190 220 2 280 198 214 212 238 240 268 269 250 244 192 203 222 214 212 179 184 176 176 165 156 147 141 162 151 213 291 327 326 325 323 309 289 265 264 243 231 234 238 251 255 246 241 238 238 239 238 238 239 237 234 235 237 238 238 233 232 230 230 224 219 215 214 206 197 199 190 202 190
106 177 142 145 165 192 203 196 210 183 184 182 184 187 186 170 172 182 219 192 221 227 244 253 262 268 168 132 192 210 204 165 125 125 139 157 167 171 159 167 184 190 191 253 272 282 286 298 301 288 258 215 242 250 235 231 244 257 254 254 248 241 242 238 236 233 237 240 241 240 236 237 236 234 233 231 226 225 225 223 223 205 194 204 202 194
157 101 123 165 182 191 134 16 54 359 203 201 196 201 187 195 202 203 212 192 168 224 15 294 324 276 127 163 171 186 142 128 144 166 169 185 196 188 168 174 183 194 211 240 259 261 262 270 268 284 287 281 273 275 271 249 234 243 268 269 257 251 250 238 240 239 235 236 234 235 242 243 238 235 232 232 230 232 229 228 223 203 201 204 201 198
92 117 96 88 90 63 75 102 345 19 316 200 219 220 202 203 199 204 215 134 186 178 225 242 250 273 109 54 148 97 108 125 149 179 179 173 190 188 172 174 194 201 211 219 242 240 245 248 246 256 265 274 263 234 228 226 225 224 222 231 238 245 250 247 243 239 237 236 237 238 239 238 234 232 230 228 226 225 223 218 215 208 207 204 198 200
161 192 134 133 124 169 175 145 203 231 233 221 205 198 217 208 203 205 70 133 218 201 198 192 238 255 93 285 183 131 139 171 201 196 198 199 162 150 167 203 198 213 232 249 256 263 271 264 262 287 305 287 279 256 234 227 224 216 224 215 224 240 242 241 250 254 247 244 242 239 243 240 232 228 224 225 219 222 218 221 219 211 212 203 206 200
172 152 154 156 163 173 183 189 190 197 208 201 207 176 203 201 196 152 196 198 231 214 180 201 235 209 132 187 183 179 169 172 194 206 178 206 204 174 176 183 206 210 224 253 267 261 262 277 285 268 246 213 240 247 251 239 228 223 222 223 219 238 245 245 249 251 257 254 250 249 247 248 244 235 228 223 222 219 214 213 213 206 207 199 197 188
170 170 184 173 180 192 195 156 85 104 106 172 198 194 181 198 193 184 172 196 219 212 187 221 231 215 187 177 175 189 190 206 187 185 182 181 203 210 203 196 199 217 235 248 256 252 256 252 259 272 268 178 247 254 252 250 247 236 226 222 218 229 235 236 235 240 241 246 246 246 245 242 243 246 242 231 223 215 210 210 204 198 199 189 190 184
96 175 195 198 191 27 6 171 143 146 170 186 160 183 176 180 183 179 188 216 200 81 234 227 219 231 221 178 184 185 189 191 181 181 185 187 196 187 195 217 204 233 237 228 233 236 242 267 282 265 176 142 244 247 243 239 241 241 231 230 217 219 228 227 224 233 240 239 241 239 240 235 234 242 246 253 244 222 214 206 200 200 191 179 186 184
170 194 194 197 180 54 154 134 145 155 168 156 169 160 165 190 194 202 217 226 161 202 227 168 174 216 225 197 197 193 180 188 191 199 189 175 149 201 230 228 232 238 238 226 234 247 243 260 279 304 154 188 227 245 246 245 242 224 226 235 230 226 229 227 217 221 227 235 237 238 238 239 228 230 236 240 253 254 238 222 207 197 183 185 190 188
151 225 184 190 199 101 187 177 155 160 158 162 172 182 188 189 200 209 221 215 205 224 230 204 189 214 218 206 207 195 188 199 198 138 107 228 229 229 228 219 222 236 241 257 275 283 278 262 271 309 271 226 228 238 244 247 239 227 223 228 220 221 233 229 221 223 228 239 241 237 227 230 234 232 229 222 216 212 206 239 270 212 196 200 197 192
187 198 174 179 199 218 224 264 178 164 162 181 186 183 188 196 208 216 221 214 217 238 236 228 244 260 235 224 203 194 197 157 52 233 239 253 245 239 235 234 239 245 256 262 273 278 274 249 244 273 267 261 229 230 254 258 265 255 239 235 221 218 221 227 227 222 226 238 238 229 208 213 225 207 217 212 191 178 170 170 157 166 188 213 198 191
200 194 158 167 195 195 202 185 184 168 173 179 185 190 196 202 212 218 217 207 200 224 224 242 267 253 175 193 218 207 122 175 222 234 244 248 250 248 250 254 256 255 254 261 276 271 253 247 264 267 270 275 275 259 254 260 260 242 249 234 221 210 206 228 233 232 233 241 234 221 214 201 196 195 210 180 187 180 174 151 155 172 173 167 170 175
184 169 168 170 194 205 165 174 145 119 110 191 202 198 203 208 212 222 227 212 214 218 189 214 236 225 165 190 194 197 221 223 234 241 253 259 253 244 245 245 245 254 262 270 263 250 220 250 253 262 277 280 277 273 272 287 279 264 256 239 227 162 206 232 236 238 241 234 217 232 218 194 189 205 200 203 183 168 152 162 165 168 165 186 180 147
177 176 181 168 198 119 108 130 133 138 202 212 207 209 201 203 207 211 213 215 217 208 221 221 235 208 186 165 197 208 207 213 231 239 234 236 238 241 244 248 249 249 264 260 250 242 246 236 230 244 252 267 274 274 282 268 268 276 290 280 187 197 218 240 246 246 264 271 256 245 232 223 215 210 207 187 172 161 165 172 191 186 172 147 138 164
179 177 189 177 165 148 143 131 157 209 220 224 227 209 209 216 210 217 227 217 208 210 227 236 239 227 177 193 207 217 213 210 221 238 236 229 238 247 252 242 236 255 251 252 242 240 239 235 244 252 260 267 303 318 295 276 247 262 256 224 216 213 240 242 254 253 267 285 238 182 202 218 232 237 206 173 165 167 183 189 168 152 164 166 174 176
176 173 160 131 122 90 151 171 200 224 227 215 57 63 181 181 210 217 237 228 212 209 214 227 234 224 224 221 222 218 213 215 230 239 235 232 227 225 217 221 236 239 246 237 247 252 238 224 239 262 283 344 320 296 289 284 307 272 264 123 206 233 260 263 252 294 333 264 198 200 210 203 222 233 165 142 145 187 207 185 176 174 152 143 152 142
179 152 152 142 238 164 182 188 217 9 297 242 248 197 162 191 197 197 223 234 213 217 216 226 229 220 221 228 224 203 197 220 262 251 201 193 230 223 211 230 240 242 234 242 237 252 146 100 281 308 334 318 310 305 304 323 314 280 278 139 104 30 303 307 308 289 266 245 210 199 193 194 193 190 173 158 158 200 197 184 176 147 138 141 151 149
168 167 157 138 231 139 160 181 205 240 249 238 220 211 196 206 195 198 224 271 214 217 217 224 229 214 216 223 218 203 151 230 247 248 155 185 214 209 208 224 239 242 235 249 256 46 77 82 61 350 311 308 302 307 332 328 315 307 296 114 106 62 317 263 255 260 263 246 207 194 187 186 184 183 172 168 193 196 183 149 127 144 157 169 166 173
21 76 353 180 150 124 177 188 200 210 232 240 197 195 186 161 140 115 184 264 243 199 202 211 216 206 205 208 214 192 191 225 239 233 127 195 206 194 205 212 226 230 243 258 348 111 101 95 104 254 260 251 305 10 347 327 322 305 317 83 96 71 298 283 274 249 257 248 197 182 178 178 179 179 175 187 199 186 177 173 168 133 136 142 144 148
109 145 121 123 109 192 168 182 212 201 237 214 157 161 155 155 126 132 183 245 257 168 191 191 204 205 204 217 213 199 202 226 239 232 131 154 155 162 173 186 162 155 100 85 95 76 74 76 275 153 46 30 19 360 347 343 343 14 2 48 99 358 305 290 277 267 264 135 144 150 169 171 182 184 177 190 186 179 184 158 141 145 157 147 144 139
179 173 193 186 186 188 189 222 280 265 244 174 173 164 156 150 153 169 212 230 143 162 174 186 199 207 210 215 208 209 215 220 227 85 102 113 107 107 72 71 76 76 98 112 97 64 51 49 56 43 40 32 14 359 4 358 13 37 52 28 358 335 303 291 297 290 281 266 130 136 155 154 175 192 194 179 175 156 135 139 145 139 149 155 135 131
161 145 156 207 199 186 195 211 231 264 242 140 190 157 153 143 193 206 198 103 140 145 172 179 197 209 210 214 212 218 221 217 114 95 99 105 102 112 108 101 98 82 71 66 76 72 91 17 65 62 58 38 11 8 19 16 56 59 38 26 22 14 11 343 246 318 307 287 320 167 124 127 110 117 127 117 132 140 146 119 127 143 148 150 133 140
172 169 182 190 188 176 163 207 234 255 219 164 121 156 187 187 225 113 119 45 84 152 151 178 203 217 194 213 220 224 230 212 184 154 126 114 120 132 132 130 151 167 165 148 148 75 348 114 68 57 43 32 20 22 28 47 67 56 44 53 28 15 0 0 351 13 56 62 72 71 73 86 123 120 115 125 125 140 137 123 133 141 146 133 132 148
169 162 166 206 170 163 189 196 215 222 49 135 154 182 204 258 320 289 105 158 70 136 152 159 205 203 200 208 214 213 216 195 166 156 137 130 113 109 96 99 97 84 97 70 77 100 285 127 97 85 61 44 33 33 22 39 61 57 61 49 21 9 20 30 35 41 73 94 84 77 79 79 65 61 71 131 139 140 137 142 137 146 166 153 161 177
172 201 185 186 184 186 195 211 220 34 161 170 172 188 163 206 219 293 350 146 160 208 193 153 198 203 193 203 204 195 184 189 175 152 144 147 141 143 151 153 168 171 145 135 111 90 322 95 109 97 72 50 35 35 27 23 43 58 54 29 22 22 37 49 51 63 63 59 69 83 74 69 75 94 88 82 108 139 140 138 141 159 155 157 173 188
195 199 33 335 207 218 327 71 182 316 162 178 176 144 172 199 197 43 44 122 226 178 169 182 203 196 195 172 161 165 168 140 137 144 135 133 130 124 118 111 108 107 102 109 105 90 95 97 98 99 86 57 38 33 32 33 39 50 24 12 22 24 40 58 70 72 68 61 66 54 68 82 78 72 68 83 128 171 141 147 172 167 162 169 183 176
168 199 208 214 160 162 244 222 165 188 170 190 177 350 223 195 180 171 179 221 80 188 227 286 275 181 169 156 169 170 153 146 149 154 138 131 136 144 144 147 149 144 138 115 89 149 137 120 99 88 78 63 40 34 32 37 38 37 19 13 8 13 42 64 73 78 72 62 70 82 70 90 78 107 108 112 117 127 116 123 157 167 173 179 207 201
228 191 199 206 161 192 232 197 157 167 195 200 182 171 166 177 161 192 165 108 106 40 98 5 86 110 107 161 169 153 144 143 149 146 142 144 137 130 135 142 141 126 103 99 104 102 97 100 106 99 81 66 41 36 33 36 36 22 17 12 358 348 48 62 53 63 60 51 40 54 63 57 69 49 92 118 139 144 147 166 183 217 206 200 209 211
133 142 205 189 209 227 258 312 174 154 203 217 212 212 208 186 183 164 126 131 124 121 102 67 65 137 156 162 143 137 131 157 157 149 139 128 129 136 136 127 117 117 117 109 85 77 100 105 96 87 80 68 48 42 42 39 30 16 11 4 359 359 51 65 66 72 66 57 59 52 42 50 51 39 35 70 96 47 36 27 27 312 282 3 342 356
136 184 193 173 217 230 219 209 158 168 201 203 204 204 222 221 169 147 135 144 150 151 145 124 81 68 70 52 1 153 147 139 131 131 130 127 132 129 125 117 112 105 99 92 94 93 88 83 89 90 83 72 62 53 52 40 29 14 3 351 350 20 65 64 84 73 60 53 55 48 40 38 51 46 34 39 39 73 118 121 104 80 37 14 22 22
190 190 179 194 197 216 219 194 171 200 47 166 191 199 216 205 158 163 183 174 168 157 160 138 121 99 108 71 359 159 142 127 122 105 99 108 109 108 111 118 118 116 113 114 105 94 91 90 90 94 88 81 68 57 52 45 24 12 3 353 342 359 31 13 78 78 75 68 63 46 31 45 45 42 29 37 22 11 8 130 118 109 107 105 50 50